Showing default

CYGFM05, 41884

Orbit data source: Space-Track

CYGFM05, 41884 is an American payload satellite in LEO that was launched on Thu, 15 Dec 2016 UTC via a PEGASUS XL launch vehicle from the Pegasus Launch, Eastern Range Air Space (ERAS). Payload-class satellites include a variety of spacecraft equipped with specific instruments for various scientific and technological missions. These include communications satellites like Starlink; space stations such as the ISS; scientific satellites like the Hubble; Earth observation satellites from companies like Planet Labs, Umbra, and HawkEye 360; GPS; miniature CubeSats for education and research; and military/defense satellites.

Loading next visibility...
Identifier
41884, 2016-078A
Orbit
LEO
Last TLE update
20 hours ago
Origin
Manufacturer
SST-US
Mission
Extended mission Civil Science
Bus & Motor
CYGNSS, Unknown motor
Mass
29 kg wet, 29 kg dry
Launch date (UTC)
2016-12-15 (9 years ago)
Launch vehicle
PEGASUS XL
Launch site
Pegasus Launch, Eastern Range Air Space (ERAS)
Object type
Payload
Rocket body
Debris
Shape & HBR
Half Hex Cyl + 2 Pan, 1.7 m
Radar Cross Section
0.450 m², Medium (>0.1 m² and < 1m²)

Expand to show TLE details & history

TLE from 20 hours ago
0 CYGFM05
1 41884U 16078A   25185.92022573  .00011310  00000-0  26547-3 0  9991
2 41884  34.9616  11.6778 0008436 120.0724 240.0833 15.41165754474995
Epoch: 2025-07-04T22:05Z
TLE epoch observation values (Epoch: 2025-07-04T22:05:07.503Z)
Latitude
-0°
Longitude
117.23083°
Altitude
444.435 km
Speed
7.646 km/s
True Right ascension
00h 46m 42s
True Declination
0° 00' 00"
Sunlit
Object was in daylight at epoch
Visualization orbit readout
Latitude
-35.07738°
Longitude
24.75973°
Altitude
456.438 km
Speed
7.637 km/s
Apparent Right ascension
18h 15m 11s
Apparent Declination
-37° 22' 30"
Sunlit
Object is in full shadow
Visualization observer readout
Local Sidereal Time
05:50:26
Azimuth
295.778° NW
Elevation
-84.542°
Doppler factor
1
Orbital elements
Apogee altitude
451.706 km
Perigee altitude
440.193 km
Semi-major axis
6,824.087 km
Eccentricity
0.00084
Inclination
34.9616°
RAAN
11.6778°
Arg. of periapsis
120.0724°
True anomaly
Unknown
Mean anomaly
240.0833°
Eccentric anomaly
Unknown
Mean motion
3.85014 °/min
Orbital period
93.5 mins
BSTAR
0.00026547
Loading maneuver chart data...
Loading SW <> Apogee altitude chart data...
Loading historical data...
Loading historical data...
Loading historical data...
Loading historical data...
Loading historical data...
Loading historical data...
Loading historical data...

CYGFM05 Visibility forecast

Observer location: undefined°, undefined°

Span
Click to sort rows by Start time (UTC) header in descending order
Start Az.
Max El. time (UTC)
Max El. Az.
Max El.
End time (UTC)
End Az.
5 mins2025-07-05 18:38:59.186Z245.304° WSW2025-07-05 18:41:59.186Z168.977° S29.376°2025-07-05 18:43:59.186Z122.196° SE
|